Regional Weather Roundup
Issued by NWS

Home | Current Version | Previous Version | Graphics & Text | Print | Product List | Glossary On
Versions: 1 2 3 4 5 6 7 8 9 10 11 12 13 14 15 16 17 18 19 20 21 22 23 24 25 26 27 28 29 30 31 32 33 34 35 36 37 38 39 40 41 42 43 44 45 46 47 48 49 50
000
ASUS43 KLMK 200710
RWRKY
KENTUCKY REGIONAL WEATHER ROUNDUP
NATIONAL WEATHER SERVICE LOUISVILLE KY
200 AM EST MON FEB 20 2017

NOTE "FAIR" INDICATES FEW OR NO CLOUDS BELOW 12,000 FEET
WITH NO SIGNIFICANT WEATHER AND/OR OBSTRUCTIONS TO VISIBILITY.

KYZ001>023-026-027-061>063-070>075-200800-
WESTERN AND SOUTH CENTRAL KENTUCKY

CITY           SKY/WX    TMP DP  RH WIND       PRES   REMARKS
PADUCAH        FOG       47  45  93 E5        30.09S VSB 1/4
HENDERSON      CLOUDY    45  41  87 E3        30.14R VSB 1/2
OWENSBORO      FOG       43  43 100 CALM      30.15R VSB 1/2
HOPKINSVILLE   PTCLDY    50  50 100 E3        30.12S
BOWLING GREEN  FOG       44  42  93 CALM      30.15S VSB 1/4
GLASGOW          N/A    N/A N/A N/A CALM      30.15S FOG
$$

KYZ024-025-028>034-038-045-046-053-200800-
NORTH CENTRAL KENTUCKY

CITY           SKY/WX    TMP DP  RH WIND       PRES   REMARKS
LOUISVILLE/SDF FOG       42  40  92 CALM      30.16F VSB 1/4
LOUISVILLE/LOU FOG       40  38  93 CALM      30.17F VSB<1/4
FORT KNOX      FOG       39  39 100 CALM      30.14S VSB 1/2
$$

KYZ035>037-039>044-047>052-055>060-089>105-200800-
NORTHEAST KENTUCKY

CITY           SKY/WX    TMP DP  RH WIND       PRES   REMARKS
LEXINGTON      CLEAR     38  36  92 SE5       30.18S FOG     WCI  34
COVINGTON      FOG       36  36 100 CALM      30.17S VSB 1/4
FRANKFORT      FOG       37  35  92 CALM      30.16F VSB 1/4
$$

KYZ054-064>069-076>088-106>120-200800-
SOUTHEAST KENTUCKY

CITY           SKY/WX    TMP DP  RH WIND       PRES   REMARKS
JACKSON        CLEAR     48  43  82 E3        30.18S
LONDON         CLEAR     40  37  89 CALM      30.17F
SOMERSET       CLEAR     39  39 100 CALM      30.18S
MIDDLESBORO    PTCLDY    38  38 100 CALM      30.21S
MONTICELLO     FOG       35  34  96 W9        30.19S VSB 1/4 WCI  28
$$





USA.gov is the U.S. government's official web portal to all federal, state and local government web resources and services.